TimeEST,TemperatureF,Dew PointF,Humidity,Sea Level PressureIn,VisibilityMPH,Wind Direction,Wind SpeedMPH,Gust SpeedMPH,PrecipitationIn,Events,Conditions,WindDirDegrees,DateUTC
12:52 AM,43.0,39.9,89,30.01,10.0,Calm,Calm,-,0.00,Rain,Light Rain,0,2013-01-17 05:52:00
1:52 AM,43.0,39.9,89,30.02,10.0,South,4.6,-,0.00,Rain,Light Rain,170,2013-01-17 06:52:00
2:52 AM,43.0,41.0,93,30.03,10.0,South,6.9,-,0.01,Rain,Light Rain,190,2013-01-17 07:52:00
3:52 AM,43.0,41.0,93,30.02,10.0,SSW,3.5,-,0.00,,Overcast,210,2013-01-17 08:52:00
4:52 AM,43.0,41.0,93,30.03,10.0,Calm,Calm,-,N/A,,Overcast,0,2013-01-17 09:52:00
5:52 AM,42.8,41.0,93,30.04,10.0,South,5.8,-,N/A,,Overcast,190,2013-01-17 10:52:00
6:52 AM,44.1,41.0,89,30.07,10.0,South,3.5,-,N/A,,Overcast,170,2013-01-17 11:52:00
7:52 AM,45.0,30.9,58,30.09,10.0,NW,6.9,-,N/A,,Overcast,320,2013-01-17 12:52:00
8:52 AM,45.0,28.9,53,30.13,10.0,North,6.9,-,N/A,,Overcast,350,2013-01-17 13:52:00
9:52 AM,45.0,28.0,52,30.14,10.0,NNW,6.9,-,N/A,,Overcast,340,2013-01-17 14:52:00
10:52 AM,45.0,28.0,52,30.13,10.0,NNW,10.4,-,N/A,,Overcast,330,2013-01-17 15:52:00
11:52 AM,44.1,28.9,55,30.12,10.0,NNW,12.7,-,N/A,,Overcast,340,2013-01-17 16:52:00
12:52 PM,45.0,30.0,56,30.10,10.0,NW,11.5,-,N/A,,Overcast,320,2013-01-17 17:52:00
1:52 PM,44.1,28.9,55,30.10,10.0,NNW,10.4,-,N/A,,Overcast,340,2013-01-17 18:52:00
2:52 PM,43.0,30.0,60,30.08,10.0,NE,8.1,-,N/A,,Overcast,40,2013-01-17 19:52:00
3:52 PM,43.0,30.0,60,30.11,10.0,ENE,9.2,-,N/A,,Overcast,70,2013-01-17 20:52:00
4:52 PM,42.1,30.9,65,30.13,10.0,SSE,5.8,-,0.00,Rain,Light Rain,150,2013-01-17 21:52:00
5:52 PM,41.0,32.0,70,30.12,10.0,Calm,Calm,-,0.00,,Overcast,0,2013-01-17 22:52:00
6:52 PM,41.0,33.1,73,30.12,10.0,SSE,3.5,-,N/A,,Overcast,150,2013-01-17 23:52:00
7:52 PM,41.0,28.9,62,30.09,10.0,North,8.1,-,N/A,,Overcast,10,2013-01-18 00:52:00
8:52 PM,41.0,28.9,62,30.11,10.0,NNW,6.9,-,N/A,,Overcast,340,2013-01-18 01:52:00
9:52 PM,41.0,30.0,65,30.08,10.0,NNW,11.5,-,N/A,,Overcast,340,2013-01-18 02:52:00
10:52 PM,41.0,28.9,62,30.09,10.0,NNW,10.4,-,N/A,,Overcast,340,2013-01-18 03:52:00
11:52 PM,39.9,28.0,63,30.08,10.0,North,9.2,-,N/A,,Overcast,350,2013-01-18 04:52:00